STARLINK-35940, 66617

Orbit data source: Space-Track

STARLINK-35940, 66617 is a payload satellite owned by SpaceX/Seattle (US) in LEO that was launched on Sun, 23 Nov 2025 UTC via an FALCON 9 launch vehicle from the Air Force Western Test Range (AFWTR). Payload-class satellites include a variety of spacecraft equipped with specific instruments for various scientific and technological missions. These include communications satellites like Starlink; space stations such as the ISS; scientific satellites like the Hubble; Earth observation satellites from companies like Planet Labs, Umbra, and HawkEye 360; GPS; miniature CubeSats for education and research; and military/defense satellites.

Loading next visibility...
Identifier
66617, 2025-271A
Orbit
LEO
Country
Flag of USUS
Related business
Manufacturer
SpaceX/Seattle
Mission
Operational Commercial Communications
Bus & Motor
STARLINK V2MO, Unknown motor
Mass
575 kg wet, ~530 kg dry
Launch date (UTC)
2025-11-23 (2 months ago)
Launch vehicle
FALCON 9
Launch site
Air Force Western Test Range (AFWTR)
Object type
Payload
Rocket body
Debris
Shape & HBR
Box + 2 Pan, 17.7 m
Radar Cross Section
36.964 m²

Expand to show TLE details & history
Last TLE update: 7 hours ago

TLE from 7 hours ago
0 STARLINK-35940
1 66617U 25271A   26037.06961963  .00025002  00000-0  85370-3 0  9996
2 66617  53.1585 286.9466 0001014  91.2252 268.8864 15.30189987 12728
Epoch: 2026-02-06T01:40Z
TLE epoch observation values (Epoch: 2026-02-06T01:40:15.136Z)
Latitude
-0.00007°
Longitude
125.6707°
Altitude
476.158 km
Speed
7.629 km/s
True Right ascension
19h 07m 47s
True Declination
0° 00' 00"
Sunlit
Object was in daylight at epoch
Visualization orbit readout
Latitude
Unknown
Longitude
Unknown
Altitude
Unknown
Speed
Unknown
Apparent Right ascension
Unknown
Apparent Declination
Unknown
Sunlit
N/A
Visualization observer readout
Local Sidereal Time
10:37:09
Azimuth
Unknown
Elevation
Unknown
Doppler factor
Unknown
Orbital elements
Apogee altitude
476.197 km
Perigee altitude
474.807 km
Semi-major axis
6,853.639 km
Eccentricity
0.0001
Inclination
53.1585°
RAAN
286.9466°
Arg. of periapsis
91.2252°
True anomaly
268.87478°
Mean anomaly
268.8864°
Eccentric anomaly
268.88059°
Mean motion
3.82526 °/min
Orbital period
94.11 mins
BSTAR
0.0008537
Loading maneuver chart data...
Computing Atmospheric mass density...
Loading historical data...
Loading historical data...
Loading historical data...
Loading historical data...
Loading historical data...
Loading historical data...
Loading historical data...

Documentation

Showing up to 5 results
|